Meteopurmerend
purmerend
Purmerend - Baaienwijk



My webcam  My webcam


Onweer radar Meer informatie blitzortung!


Regen radar Meer informatie rain snow radar


Bezoek onze andere website:

CandyAppleRed WebdesignWebdesign Purmerend Candy Apple Red

MeteopurmerendBlog

Template documentation
and downloads



We konden geen weer-waarchuwingen ophalen. Ga rechtstreeks naar de Meteoalarm site : www.meteoalarm.eu en controleer daar .

15 daagse weersverwachting Weidevenne (NL)

  • Overzicht
  • Per uur
  • 15 dagen
  • Extra
  • Vergelijk
  • Kaarten
  • Dagkaart
  • Meer »
  • Info
  • Statistieken
  • Directe link
    Temp 6h Neerslag Wind  
 05:58     21:36    Daglengte: 15:38 Vandaag
14:00
18°
 
9
20:00
18°
 
7
 06:00     21:35    Daglengte: 15:35 Morgen
02:00
16°
 
4
08:00
15°
 
4
14:00
19°
 
4
20:00
18°
 
4
 06:01     21:33    Daglengte: 15:32 Zaterdag 31 Jul
02:00
16°
0.5 mm
6
08:00
16°
3.6 mm
6
14:00
17°
9.6 mm
7
20:00
17°
14.8 mm
5
 06:03     21:31    Daglengte: 15:28 Zondag 01 Aug
02:00
15°
13.5 mm
2
08:00
16°
 
2
Locatie info
Region: Noord-Holland
Latitude: 52.4886°N
Longitude: 4.9350°E
-3 masl
Temp/Neerslag /Baro Onweer/Dauwpunt
    Temp Baro 1h Neerslag Dauwpunt Wind UV Bewolking  
 05:58     21:36    Daglengte: 15:38 Vandaag
12:00
18°
1008.8 hPa
48%
10.8°
9
Windvlaag: 8.3 m/s
14%
13:00
18°
1009.0 hPa
20%
10.9°
9
Windvlaag: 8.2 m/s
10%
14:00
18°
1009.4 hPa
21%
11.1°
9
Windvlaag: 8.1 m/s
6%
15:00
18°
1009.4 hPa
20%
11.1°
9
Windvlaag: 8.4 m/s
19%
16:00
18°
1009.6 hPa
20%
11.1°
9
Windvlaag: 8.3 m/s
3%
17:00
18°
1009.7 hPa
20%
10.5°
9
Windvlaag: 7.8 m/s
4%
18:00
18°
1009.8 hPa
19%
10.7°
8
Windvlaag: 7.4 m/s
2%
19:00
18°
1009.7 hPa
13%
10.7°
7
Windvlaag: 7.7 m/s
1%
20:00
18°
1009.6 hPa
13%
11.5°
7
Windvlaag: 8.5 m/s
4%
21:00
17°
1009.4 hPa
13%
12.0°
6
Windvlaag: 8.2 m/s
5%
22:00
17°
1009.4 hPa
13%
12.2°
5
Windvlaag: 8.8 m/s
8%
23:00
16°
1009.5 hPa
13%
12.2°
5
Windvlaag: 8.7 m/s
39%
 06:00     21:35    Daglengte: 15:35 Morgen
00:00
16°
1009.3 hPa
13%
12.2°
5
Windvlaag: 8.5 m/s
41%
01:00
16°
1009.2 hPa
13%
12.3°
5
Windvlaag: 8.6 m/s
43%
02:00
16°
1009.0 hPa
13%
12.8°
4
Windvlaag: 7.9 m/s
28%
03:00
15°
1008.9 hPa
13%
13.0°
4
Windvlaag: 7.3 m/s
9%
04:00
15°
1008.6 hPa
13%
12.9°
4
Windvlaag: 6.7 m/s
39%
05:00
14°
1008.3 hPa
13%
13.0°
4
Windvlaag: 6.9 m/s
51%
06:00
14°
1008.2 hPa
13%
12.9°
4
Windvlaag: 6.8 m/s
56%
07:00
14°
1008.2 hPa
13%
13.0°
4
Windvlaag: 6.7 m/s
69%
08:00
15°
1008.1 hPa
13%
13.1°
4
Windvlaag: 7.1 m/s
72%
09:00
16°
1008.0 hPa
23%
13.1°
4
Windvlaag: 6.4 m/s
85%
10:00
16°
1007.7 hPa
78%
12.2°
3
Windvlaag: 5.6 m/s
86%
11:00
16°
1007.5 hPa
78%
12.1°
3
Windvlaag: 4.5 m/s
86%
12:00
17°
1006.9 hPa
36%
13.1°
4
Windvlaag: 3.6 m/s
78%
13:00
18°
1006.1 hPa
72%
14.8°
4
Windvlaag: 6.3 m/s
64%
14:00
19°
1005.5 hPa
25%
16.2°
4
Windvlaag: 8.1 m/s
76%
15:00
20°
1004.9 hPa
62%
16.6°
4
Windvlaag: 8.6 m/s
83%
16:00
18°
1004.8 hPa
36%
15.1°
5
Windvlaag: 8.5 m/s
72%
17:00
19°
1004.1 hPa
22%
15.7°
3
Windvlaag: 5.1 m/s
12%
18:00
19°
1003.8 hPa
22%
15.8°
5
Windvlaag: 9.1 m/s
60%
19:00
18°
1003.5 hPa
55%
15.3°
3
Windvlaag: 7.7 m/s
32%
20:00
18°
1003.4 hPa
21%
14.9°
4
Windvlaag: 8.4 m/s
62%
21:00
17°
1002.9 hPa
16%
15.0°
4
Windvlaag: 9.2 m/s
17%
22:00
16°
1002.7 hPa
20%
14.4°
5
Windvlaag: 8.9 m/s
37%
23:00
16°
1002.4 hPa
25%
14.6°
6
Windvlaag: 9.6 m/s
20%
 06:01     21:33    Daglengte: 15:32 Zaterdag 31 Jul
00:00
16°
1002.3 hPa
34%
13.9°
6
Windvlaag: 9.3 m/s
56%
01:00
16°
1002.3 hPa 0.5 mm
82%
13.7°
6
Windvlaag: 2.2 m/s
60%
02:00
16°
1002.9 hPa
81%
13.8°
6
Windvlaag: -2.2 m/s
64%
03:00
16°
1003.4 hPa 0.6 mm
82%
13.8°
7
Windvlaag: -1.1 m/s
42%
04:00
15°
1003.9 hPa
75%
13.3°
7
Windvlaag: 0.5 m/s
64%
05:00
16°
1002.5 hPa
32%
14.2°
7
Windvlaag: 1.6 m/s
49%
06:00
16°
1002.9 hPa
85%
14.4°
7
Windvlaag: 4.6 m/s
81%
07:00
16°
1003.3 hPa 1.2 mm
87%
14.5°
7
Windvlaag: 4.5 m/s
74%
08:00
16°
1003.6 hPa 1.8 mm
85%
14.3°
6
Windvlaag: 4.6 m/s
75%
09:00
16°
1004.1 hPa
42%
14.5°
6
Windvlaag: 4.8 m/s
79%
10:00
17°
1004.4 hPa 2.4 mm
46%
14.8°
7
Windvlaag: 4.4 m/s
91%
11:00
17°
1005.0 hPa 1.8 mm
95%
13.9°
7
Windvlaag: 4.2 m/s
89%
12:00
17°
1005.4 hPa 1.6 mm
100%
14.0°
7
Windvlaag: 4.1 m/s
95%
13:00
17°
1005.7 hPa 1.9 mm
100%
14.9°
7
Windvlaag: 5 m/s
96%
14:00
17°
1006.1 hPa 2.0 mm
100%
14.0°
7
Windvlaag: 4.6 m/s
92%
15:00
17°
1006.4 hPa 3.0 mm
100%
13.4°
7
Windvlaag: 4.5 m/s
93%
16:00
18°
1006.6 hPa 2.9 mm
100%
13.6°
7
Windvlaag: 3.8 m/s
63%
17:00
18°
1006.6 hPa 2.8 mm
100%
13.8°
7
Windvlaag: 3.5 m/s
84%
18:00
18°
1006.7 hPa 2.8 mm
100%
14.9°
6
Windvlaag: 3.1 m/s
80%
19:00
18°
1006.6 hPa
55%
15.1°
6
Windvlaag: 3 m/s
47%
20:00
17°
1006.8 hPa 3.3 mm
57%
14.1°
5
Windvlaag: 3.5 m/s
66%
21:00
16°
1007.0 hPa 3.5 mm
46%
14.4°
4
Windvlaag: 3.6 m/s
65%
22:00
16°
1007.3 hPa 3.0 mm
42%
14.8°
3
Windvlaag: 3.1 m/s
69%
23:00
15°
1007.3 hPa
30%
14.5°
3
Windvlaag: 2.7 m/s
71%
 06:03     21:31    Daglengte: 15:28 Zondag 01 Aug
00:00
15°
1007.4 hPa
29%
14.4°
2
Windvlaag: 2.9 m/s
60%
01:00
15°
1007.5 hPa 3.4 mm
34%
14.3°
3
Windvlaag: 4.5 m/s
67%
02:00
15°
1007.1 hPa 3.6 mm
37%
14.0°
2
Windvlaag: 5.4 m/s
87%
03:00
15°
1006.9 hPa
30%
14.4°
1
Windvlaag: 4.4 m/s
68%
04:00
15°
1006.8 hPa
27%
14.2°
1
Windvlaag: 4.1 m/s
76%
05:00
15°
1006.6 hPa
27%
13.9°
1
Windvlaag: 2.1 m/s
67%
06:00
14°
1006.7 hPa
26%
13.6°
1
Windvlaag: 1.8 m/s
47%
07:00
15°
1006.7 hPa
27%
14.5°
2
Windvlaag: 3.7 m/s
63%
08:00
16°
1006.9 hPa
31%
14.3°
2
Windvlaag: 3 m/s
19%
09:00
17°
1006.5 hPa 8.6 mm
100%
14.2°
1
Windvlaag: 1.6 m/s
100%
10:00
18°
1006.2 hPa 8.7 mm
100%
13.8°
2
Windvlaag: 2.6 m/s
97%
11:00
19°
1006.8 hPa 8.7 mm
100%
12.9°
2
Windvlaag: 2.9 m/s
95%
Temp/Neerslag /Baro Onweer/Dauwpunt
    Temp Baro Neerslag Dauwpunt Wind Bewolking  
 05:58     21:36    Daglengte: 15:38 Vandaag
14:00
18°
1009.4 hPa   11.1°
9
6%
17:00
18°
1009.7 hPa   10.5°
9
4%
20:00
18°
1009.6 hPa   11.5°
7
4%
23:00
16°
1009.5 hPa   12.2°
5
39%
 06:00     21:35    Daglengte: 15:35 Morgen
02:00
16°
1009.0 hPa   12.8°
4
28%
05:00
14°
1008.3 hPa   13.0°
4
51%
08:00
15°
1008.1 hPa   13.1°
4
72%
11:00
16°
1007.5 hPa   12.1°
3
86%
14:00
19°
1005.5 hPa   16.2°
4
76%
17:00
19°
1004.1 hPa   15.7°
3
12%
20:00
18°
1003.4 hPa   14.9°
4
62%
23:00
16°
1002.4 hPa   14.6°
6
20%
 06:01     21:33    Daglengte: 15:32 Zaterdag 31 Jul
02:00
16°
1002.9 hPa 0.5 mm 13.8°
6
64%
05:00
16°
1002.5 hPa 0.6 mm 14.2°
7
49%
08:00
16°
1003.6 hPa 3.0 mm 14.3°
6
75%
11:00
17°
1005.0 hPa 4.1 mm 13.9°
7
89%
14:00
17°
1006.1 hPa 5.5 mm 14.0°
7
92%
17:00
18°
1006.6 hPa 8.7 mm 13.8°
7
84%
20:00
17°
1006.8 hPa 6.1 mm 14.1°
5
66%
23:00
15°
1007.3 hPa 6.6 mm 14.5°
3
71%
 06:03     21:31    Daglengte: 15:28 Zondag 01 Aug
02:00
15°
1007.1 hPa 7.0 mm 14.0°
2
87%
05:00
15°
1006.6 hPa   13.9°
1
67%
08:00
16°
1006.9 hPa   14.3°
2
19%
11:00
19°
1006.8 hPa 26.0 mm 12.9°
2
95%
14:00
20°
1007.4 hPa 26.1 mm 11.3°
4
100%
17:00
16°
1010.2 hPa 15.3 mm 14.7°
1
1%
20:00
17°
1010.3 hPa 17.0 mm 14.7°
3
1%
23:00
14°
1011.4 hPa 18.2 mm 13.0°
2
1%
 06:04     21:30    Daglengte: 15:26 Maandag 02 Aug
02:00
13°
1011.7 hPa 18.3 mm 11.7°
2
0%
05:00
13°
1011.9 hPa 18.3 mm 11.4°
2
1%
08:00
15°
1012.6 hPa 18.3 mm 12.2°
2
1%
11:00
18°
1013.3 hPa 18.5 mm 11.6°
1
1%
14:00
19°
1013.3 hPa 18.8 mm 11.9°
2
1%
17:00
19°
1013.6 hPa 18.8 mm 10.4°
3
1%
20:00
17°
1013.9 hPa 18.8 mm 10.5°
4
1%
23:00
13°
1014.9 hPa 18.8 mm 10.2°
3
0%
 06:06     21:28    Daglengte: 15:22 Dinsdag 03 Aug
02:00
12°
1015.3 hPa 18.8 mm 10.5°
2
0%
05:00
12°
1015.3 hPa 18.8 mm 10.4°
2
0%
08:00
15°
1016.0 hPa 18.8 mm 11.2°
1
0%
11:00
19°
1016.1 hPa 18.9 mm 10.5°
1
0%
14:00
19°
1016.0 hPa 19.5 mm 11.3°
2
0%
17:00
19°
1015.5 hPa 19.8 mm 10.8°
3
0%
20:00
17°
1015.9 hPa 19.9 mm 11.3°
3
0%
23:00
13°
1017.0 hPa 19.9 mm 10.5°
2
0%
 06:08     21:26    Daglengte: 15:18 Woensdag 04 Aug
02:00
12°
1017.2 hPa 19.9 mm 10.4°
2
0%
05:00
12°
1016.8 hPa 19.9 mm 9.9°
1
1%
08:00
14°
1018.0 hPa 19.9 mm 10.7°
1
1%
11:00
18°
1018.0 hPa 19.9 mm 10.1°
1
1%
14:00
21°
1017.6 hPa 19.9 mm 9.5°
1
1%
17:00
19°
1017.3 hPa 19.9 mm 10.2°
2
1%
20:00
18°
1017.3 hPa 19.9 mm 10.9°
3
1%
23:00
14°
1017.8 hPa 19.9 mm 9.3°
2
0%
 06:09     21:24    Daglengte: 15:15 Donderdag 05 Aug
02:00
14°
1017.7 hPa 19.9 mm 11.0°
2
0%
05:00
13°
1017.0 hPa 19.9 mm 10.8°
1
1%
08:00
15°
1017.1 hPa 19.9 mm 11.3°
1
0%
11:00
20°
1016.9 hPa   10.7°
1
0%
14:00
22°
1016.0 hPa 39.7 mm 8.7°
1
0%
20:00
19°
1014.9 hPa 39.7 mm 11.5°
2
0%
 06:11     21:22    Daglengte: 15:11 Vrijdag 06 Aug
02:00
14°
1014.1 hPa 39.7 mm 11.1°
0
0%
08:00
16°
1013.3 hPa 39.7 mm 11.4°
2
0%
14:00
23°
1012.2 hPa 39.8 mm 10.8°
1
1%
20:00
21°
1011.4 hPa 40.0 mm 13.8°
2
1%
 06:12     21:20    Daglengte: 15:08 Zaterdag 07 Aug
02:00
16°
1011.2 hPa 40.0 mm 12.3°
3
1%
08:00
17°
1009.2 hPa 40.0 mm 10.9°
5
1%
14:00
19°
1007.4 hPa 40.1 mm 14.4°
5
1%
20:00
18°
1005.5 hPa 45.9 mm 15.8°
4
1%
 06:14     21:19    Daglengte: 15:05 Zondag 08 Aug
02:00
14°
1006.6 hPa 49.2 mm 13.1°
5
0%
08:00
16°
1010.8 hPa 0.8 mm 12.4°
4
60%
14:00
21°
1011.7 hPa 0.8 mm 12.3°
4
70%
20:00
19°
1012.0 hPa 0.7 mm 12.4°
3
62%
 06:16     21:17    Daglengte: 15:01 Maandag 09 Aug
02:00
16°
1013.0 hPa 0.3 mm 12.5°
3
56%
08:00
16°
1013.5 hPa 0.5 mm 13.1°
3
66%
14:00
21°
1015.4 hPa 0.8 mm 12.8°
4
52%
20:00
19°
1015.9 hPa 0.7 mm 13.1°
3
49%
 06:17     21:15    Daglengte: 14:58 Dinsdag 10 Aug
02:00
16°
1016.9 hPa 0.3 mm 12.6°
3
36%
08:00
16°
1017.0 hPa 0.3 mm 13.0°
3
41%
14:00
21°
1017.9 hPa 0.4 mm 12.9°
5
49%
20:00
19°
1017.4 hPa 0.3 mm 12.7°
3
44%
 06:19     21:13    Daglengte: 14:54 Woensdag 11 Aug
02:00
16°
1017.8 hPa 0.3 mm 12.6°
2
50%
08:00
17°
1017.0 hPa 1.3 mm 13.1°
3
48%
14:00
22°
1017.6 hPa 0.2 mm 13.2°
4
53%
20:00
20°
1016.9 hPa 0.5 mm 13.5°
3
42%
 06:21     21:11    Daglengte: 14:50 Donderdag 12 Aug
02:00
16°
1017.0 hPa 0.4 mm 13.2°
1
50%
08:00
17°
1016.6 hPa 0.6 mm 13.4°
2
52%
14:00
22°
1016.6 hPa 1.2 mm 13.4°
3
56%
20:00
19°
1016.4 hPa 1.1 mm 13.4°
2
62%
 06:22     21:09    Daglengte: 14:47 Vrijdag 13 Aug
02:00
16°
1016.5 hPa 0.7 mm 13.2°
2
63%
08:00
16°
1016.4 hPa 0.4 mm 13.1°
2
55%
  CAPE Lifted Index Hail Supercell Tornado SRH 3km CL BTM PRES CL TOP PRES Swiss DWD icon SMHI TS
 05:58     21:36    Daglengte: 15:38 Vandaag
12:00 87 J/kg 5.2 K 0 % 0 % 0 % 0 m²/s² 0 0 8.05 2
13:00 92 J/kg 4.9 K 0 % 0 % 0 % 0 m²/s² 0 0 7.75 2
14:00 65 J/kg 5.0 K 0 % 0 % 0 % 0 m²/s² 0 0 8.03 2
15:00 24 J/kg 5.4 K 0 % 0 % 0 % 0 m²/s² 0 0 8.85 2
16:00 13 J/kg 5.8 K 0 % 0 % 0 % 0 m²/s² 0 0 10.06 2
17:00 10 J/kg 6.0 K 0 % 0 % 0 % 0 m²/s² 0 0 10.5 1
18:00 16 J/kg 5.5 K 0 % 0 % 0 % 0 m²/s² 0 0 10.36 1
19:00 18 J/kg 4.8 K 0 % 0 % 0 % 0 m²/s² 0 0 10.08 1
20:00 9 J/kg 4.9 K 0 % 0 % 0 % 0 m²/s² 0 0 10.48 1
21:00 4 J/kg 5.0 K 0 % 0 % 0 % 0 m²/s² 0 0 10.46 0
22:00 0 J/kg 5.0 K 0 % 0 % 0 % 0 m²/s² 0 0 10.31 0
23:00 7 J/kg 5.1 K 0 % 0 % 0 % 0 m²/s² 0 0 10.44 3
 06:00     21:35    Daglengte: 15:35 Morgen
00:00 0 J/kg 4.7 K 0 % 0 % 0 % 0 m²/s² 0 0 9.77 3
01:00 4 J/kg 4.5 K 0 % 0 % 0 % 0 m²/s² 0 0 8.46 3
02:00 16 J/kg 3.9 K 0 % 0 % 0 % 0 m²/s² 0 0 6.78 2
03:00 17 J/kg 3.6 K 0 % 0 % 0 % 0 m²/s² 0 0 5.61 2
04:00 15 J/kg 3.4 K 0 % 0 % 0 % 0 m²/s² 0 0 4.99 3
05:00 5 J/kg 4.0 K 0 % 0 % 0 % 0 m²/s² 0 0 5.05 3
06:00 6 J/kg 3.9 K 0 % 0 % 0 % 0 m²/s² 0 0 4.29 3
07:00 0 J/kg 3.9 K 0 % 0 % 0 % 0 m²/s² 0 0 4.2 3
08:00 0 J/kg 3.7 K 0 % 0 % 0 % 0 m²/s² 0 0 4.21 3
09:00 0 J/kg 3.2 K 0 % 0 % 0 % 0 m²/s² 0 0 3.77 3
10:00 0 J/kg 3.0 K 0 % 0 % 0 % 0 m²/s² 0 0 3.51 80
11:00 0 J/kg 3.2 K 0 % 0 % 0 % 0 m²/s² 0 0 3.29 61
12:00 0 J/kg 2.6 K 0 % 0 % 0 % 0 m²/s² 0 0 2.78 3
13:00 0 J/kg 1.8 K 0 % 0 % 0 % 0 m²/s² 0 0 2.13 3
14:00 83 J/kg 0.6 K 0 % 0 % 0 % 0 m²/s² 0 0 1.26 3
15:00 101 J/kg 0.5 K 0 % 0 % 0 % 0 m²/s² 0 0 1.25 3
16:00 0 J/kg 1.8 K 0 % 0 % 0 % 0 m²/s² 0 0 2.55 3
17:00 6 J/kg 1.1 K 0 % 0 % 0 % 0 m²/s² 0 0 4.64 3
18:00 4 J/kg 0.5 K 0 % 0 % 0 % 0 m²/s² 0 0 0.8 2
19:00 0 J/kg 1.3 K 0 % 0 % 0 % 0 m²/s² 0 0 2.98 3
20:00 0 J/kg 1.7 K 0 % 0 % 0 % 0 m²/s² 0 0 4.22 3
21:00 0 J/kg 1.2 K 0 % 0 % 0 % 0 m²/s² 0 0 3 2
22:00 31 J/kg 0.6 K 0 % 0 % 0 % 0 m²/s² 0 0 2.94 2
23:00 95 J/kg 0.6 K 0 % 0 % 0 % 0 m²/s² 0 0 3.96 2
 06:01     21:33    Daglengte: 15:32 Zaterdag 31 Jul
00:00 30 J/kg 0.8 K 0 % 0 % 0 % 0 m²/s² 0 0 3.05 3
01:00 12 J/kg -0.1 K 0 % 0 % 0 % 0 m²/s² 0 0 1.4 3
02:00 277 J/kg -1.2 K 0 % 0 % 0 % 0 m²/s² 0 0 0.18 3
03:00 312 J/kg -0.9 K 0 % 0 % 0 % 0 m²/s² 0 0 0.42 3
04:00 424 J/kg -1.4 K 0 % 0 % 0 % 0 m²/s² 0 0 -0.29 3
05:00 449 J/kg -1.4 K 0 % 0 % 0 % 0 m²/s² 0 0 -0.38 2
06:00 569 J/kg -1.3 K 0 % 0 % 0 % 0 m²/s² 0 0 -0.49 3
07:00 454 J/kg -0.8 K 0 % 0 % 0 % 0 m²/s² 0 0 -0.26 80
08:00 280 J/kg -0.3 K 0 % 0 % 0 % 0 m²/s² 0 0 0.12 2
09:00 274 J/kg -0.6 K 0 % 0 % 0 % 0 m²/s² 0 0 0.03 3
10:00 617 J/kg -1.9 K 0 % 0 % 0 % 0 m²/s² 0 0 -1.12 3
11:00 580 J/kg -1.8 K 0 % 0 % 0 % 0 m²/s² 0 0 -0.3 3
12:00 647 J/kg -1.8 K 0 % 0 % 0 % 0 m²/s² 0 0 -1.17 80
13:00 502 J/kg -1.1 K 0 % 0 % 0 % 0 m²/s² 0 0 -0.68 80
14:00 452 J/kg -0.9 K 0 % 0 % 0 % 0 m²/s² 0 0 -0.3 80
15:00 357 J/kg -0.7 K 0 % 0 % 0 % 0 m²/s² 0 0 -0.07 61
16:00 305 J/kg -0.6 K 0 % 0 % 0 % 0 m²/s² 0 0 -0.21 80
17:00 247 J/kg -0.6 K 0 % 0 % 0 % 0 m²/s² 0 0 -0.18 3
18:00 213 J/kg -0.7 K 0 % 0 % 0 % 0 m²/s² 0 0 -0.22 3
19:00 224 J/kg -0.7 K 0 % 0 % 0 % 0 m²/s² 0 0 -0.19 3
20:00 101 J/kg -0.3 K 0 % 0 % 0 % 0 m²/s² 0 0 0.03 2
21:00 90 J/kg 0.0 K 0 % 0 % 0 % 0 m²/s² 0 0 0.51 2
22:00 53 J/kg 0.3 K 0 % 0 % 0 % 0 m²/s² 0 0 0.99 3
23:00 43 J/kg 0.3 K 0 % 0 % 0 % 0 m²/s² 0 0 0.96 3
 06:03     21:31    Daglengte: 15:28 Zondag 01 Aug
00:00 16 J/kg 0.3 K 0 % 0 % 0 % 0 m²/s² 0 0 1.05 2
01:00 48 J/kg 0.2 K 0 % 0 % 0 % 0 m²/s² 0 0 0.98 3
02:00 46 J/kg 0.2 K 0 % 0 % 0 % 0 m²/s² 0 0 1.22 3
03:00 47 J/kg 0.1 K 0 % 0 % 0 % 0 m²/s² 0 0 0.88 3
04:00 36 J/kg 0.4 K 0 % 0 % 0 % 0 m²/s² 0 0 1.63 3
05:00 40 J/kg 0.6 K 0 % 0 % 0 % 0 m²/s² 0 0 1.38 3
06:00 41 J/kg 0.5 K 0 % 0 % 0 % 0 m²/s² 0 0 0.74 3
07:00 22 J/kg 0.6 K 0 % 0 % 0 % 0 m²/s² 0 0 1.02 3
08:00 87 J/kg 0.1 K 0 % 0 % 0 % 0 m²/s² 0 0 0.79 2
09:00 155 J/kg 0.0 K 0 % 0 % 0 % 0 m²/s² 0 0 0.51
10:00 125 J/kg 0.2 K 0 % 0 % 0 % 0 m²/s² 0 0 0.89
11:00 105 J/kg 0.3 K 0 % 0 % 0 % 0 m²/s² 0 0 1.08
Temp Baro Wind Neerslag
  EWN Forecast EWN WRFDA DWD ICON FMI HIRLAM MET Norway GFS
 05:58     21:36    Daglengte: 15:38 Vandaag
14:00 18.2° 1009.4 hPa 9.1 m/s 0.0 mm 18.2° 1008.6 hPa 9.9 m/s 0.0 mm 18.4° 1009.5 hPa 8.0 m/s -1.0 mm 18.1° 1009.8 hPa 9.1 m/s 0.0 mm 18.8° 1009.6 hPa 9.2 m/s
17:00 18.4° 1009.7 hPa 8.6 m/s 0.0 mm 18.8° 1009.0 hPa 9.1 m/s 0.0 mm 18.8° 1009.8 hPa 7.1 m/s 0.0 mm 18.2° 1009.9 hPa 8.6 m/s 0.0 mm 19.0° 1010.1 hPa 8.3 m/s
20:00 17.8° 1009.6 hPa 6.9 m/s 0.0 mm 18.1° 1008.3 hPa 8.0 m/s 0.0 mm 18.2° 1009.6 hPa 6.0 m/s 0.0 mm 17.8° 1010.4 hPa 6.6 m/s 0.0 mm 18.0° 1009.6 hPa 7.1 m/s
23:00 16.1° 1009.5 hPa 5.2 m/s 0.0 mm 14.8° 1008.6 hPa 4.4 m/s 0.0 mm 16.0° 1009.4 hPa 3.9 m/s 0.0 mm 17.0° 1010.4 hPa 5.3 m/s 0.0 mm 16.3° 1009.9 hPa 6.7 m/s
 06:00     21:35    Daglengte: 15:35 Morgen
02:00 15.5° 1009.0 hPa 4.5 m/s 0.0 mm 14.3° 1008.0 hPa 4.3 m/s 0.0 mm 15.3° 1009.1 hPa 3.4 m/s 0.0 mm 16.2° 1009.4 hPa 4.5 m/s 0.0 mm 15.8° 1009.3 hPa 5.2 m/s
05:00 14.4° 1008.3 hPa 3.6 m/s 0.0 mm 14.8° 1007.1 hPa 3.8 m/s 0.0 mm 14.4° 1008.7 hPa 3.4 m/s 0.0 mm 14.9° 1008.5 hPa 3.4 m/s 0.0 mm 14.3° 1008.7 hPa 3.7 m/s
08:00 14.8° 1008.1 hPa 3.8 m/s 0.0 mm 15.9° 1007.1 hPa 4.0 m/s 0.0 mm 14.8° 1008.3 hPa 3.7 m/s 0.0 mm 14.8° 1008.5 hPa 3.5 m/s 0.0 mm 15.5° 1008.4 hPa 3.5 m/s
11:00 16.3° 1007.5 hPa 3.1 m/s 0.0 mm 18.0° 1006.1 hPa 3.1 m/s 0.0 mm 16.1° 1007.9 hPa 2.6 m/s 0.8 mm 17.6° 1008.0 hPa 3.5 m/s 0.0 mm 18.5° 1007.8 hPa 3.5 m/s
14:00 19.3° 1005.5 hPa 4.5 m/s 0.0 mm 23.7° 1003.8 hPa 5.0 m/s 0.0 mm 19.7° 1005.7 hPa 5.0 m/s 0.0 mm 16.0° 1007.2 hPa 0.9 m/s 0.0 mm 22.8° 1006.0 hPa 5.1 m/s
17:00 18.9° 1004.1 hPa 3.4 m/s 0.0 mm 20.9° 1002.9 hPa 5.3 m/s 0.0 mm 20.3° 1004.1 hPa 5.2 m/s 0.0 mm 16.3° 1006.5 hPa 1.1 m/s 0.0 mm 19.6° 1005.1 hPa 5.2 m/s
20:00 18.0° 1003.4 hPa 3.8 m/s 0.0 mm 17.4° 1002.9 hPa 1.4 m/s 3.1 mm 18.5° 1003.3 hPa 6.5 m/s 0.0 mm 16.3° 1006.5 hPa 1.3 m/s 0.0 mm 18.5° 1004.3 hPa 2.9 m/s
23:00 16.2° 1002.4 hPa 5.9 m/s 0.0 mm 16.6° 1001.4 hPa 5.5 m/s 4.7 mm 16.5° 1002.2 hPa 6.7 m/s 0.0 mm 15.3° 1007.7 hPa 1.7 m/s 0.0 mm 16.6° 1003.1 hPa 6.4 m/s
 06:01     21:33    Daglengte: 15:32 Zaterdag 31 Jul
02:00 15.7° 1002.9 hPa 6.4 m/s 0.5 mm 16.1° 999.5 hPa 6.7 m/s 5.2 mm 15.8° 1001.5 hPa 6.9 m/s 0.2 mm 14.8° 1007.8 hPa 2.2 m/s 0.0 mm 15.9° 1001.6 hPa 8.6 m/s
05:00 15.5° 1002.5 hPa 6.6 m/s 0.6 mm 15.6° 998.5 hPa 6.6 m/s 7.6 mm 15.7° 1002.7 hPa 6.6 m/s 0.2 mm 14.8° 1001.2 hPa 7.8 m/s
08:00 15.8° 1003.6 hPa 6.5 m/s 3.0 mm 15.8° 999.4 hPa 9.9 m/s 13.5 mm 16.3° 1003.9 hPa 5.3 m/s 0.3 mm 15.2° 1002.0 hPa 9.0 m/s
11:00 17.2° 1005.0 hPa 7.2 m/s 4.1 mm 18.2° 1002.0 hPa 9.7 m/s 18.9 mm 17.1° 1005.0 hPa 6.3 m/s 0.2 mm 16.0° 1003.9 hPa 8.7 m/s
14:00 16.9° 1006.1 hPa 7.3 m/s 5.5 mm 17.8° 1004.3 hPa 8.7 m/s 21.4 mm 16.8° 1006.1 hPa 5.5 m/s 1.5 mm 17.8° 1005.7 hPa 8.2 m/s
17:00 17.7° 1006.6 hPa 6.9 m/s 8.7 mm 18.3° 1005.3 hPa 7.7 m/s 23.9 mm 17.5° 1006.6 hPa 5.7 m/s 1.1 mm 17.3° 1007.4 hPa 7.2 m/s
20:00 17.2° 1006.8 hPa 5.3 m/s 6.1 mm 17.2° 1005.6 hPa 5.6 m/s 24.7 mm 17.4° 1006.8 hPa 4.3 m/s 0.1 mm 16.6° 1008.1 hPa 4.7 m/s
23:00 15.3° 1007.3 hPa 2.7 m/s 6.6 mm 13.8° 1006.7 hPa 2.8 m/s 25.0 mm 15.6° 1007.2 hPa 2.1 m/s 0.0 mm 13.4° 1009.2 hPa 2.7 m/s
 06:03     21:31    Daglengte: 15:28 Zondag 01 Aug
02:00 14.9° 1007.1 hPa 2.4 m/s 7.0 mm 13.8° 1006.0 hPa 2.2 m/s 25.1 mm 15.0° 1007.4 hPa 1.6 m/s 0.0 mm 13.1° 1009.7 hPa 2.1 m/s
05:00 14.5° 1006.6 hPa 1.3 m/s 0.0 mm 13.2° 1005.9 hPa 1.5 m/s 25.6 mm 14.9° 1006.8 hPa 1.3 m/s 0.0 mm 12.8° 1009.2 hPa 1.4 m/s
08:00 15.9° 1006.9 hPa 1.8 m/s 0.0 mm 16.1° 1006.0 hPa 1.4 m/s 25.8 mm 15.9° 1007.1 hPa 2.0 m/s 0.0 mm 14.9° 1009.4 hPa 1.1 m/s
11:00 19.1° 1006.8 hPa 1.6 m/s 26.0 mm 19.1° 1006.8 hPa 1.6 m/s 26.0 mm 14.0° 1010.0 hPa 1.1 m/s
14:00 19.7° 1007.4 hPa 3.7 m/s 26.1 mm 19.7° 1007.4 hPa 3.7 m/s 26.1 mm 15.4° 1010.0 hPa 0.8 m/s
17:00 16.4° 1010.2 hPa 1.1 m/s 15.3 mm 16.4° 1010.2 hPa 1.1 m/s 15.3 mm
20:00 16.9° 1010.3 hPa 2.6 m/s 17.0 mm 16.9° 1010.3 hPa 2.6 m/s 17.0 mm
23:00 14.4° 1011.4 hPa 2.3 m/s 18.2 mm 14.4° 1011.4 hPa 2.3 m/s 18.2 mm
 06:04     21:30    Daglengte: 15:26 Maandag 02 Aug
02:00 13.5° 1011.7 hPa 2.0 m/s 18.3 mm 13.5° 1011.7 hPa 2.0 m/s 18.3 mm
05:00 12.7° 1011.9 hPa 2.0 m/s 18.3 mm 12.7° 1011.9 hPa 2.0 m/s 18.3 mm
08:00 14.5° 1012.6 hPa 1.8 m/s 18.3 mm 14.5° 1012.6 hPa 1.8 m/s 18.3 mm
11:00 17.9° 1013.3 hPa 1.4 m/s 18.5 mm 17.9° 1013.3 hPa 1.4 m/s 18.5 mm
14:00 19.2° 1013.3 hPa 2.0 m/s 18.8 mm 19.2° 1013.3 hPa 2.0 m/s 18.8 mm
17:00 18.8° 1013.6 hPa 3.2 m/s 18.8 mm 18.8° 1013.6 hPa 3.2 m/s 18.8 mm
20:00 17.3° 1013.9 hPa 3.7 m/s 18.8 mm 17.3° 1013.9 hPa 3.7 m/s 18.8 mm
23:00 13.0° 1014.9 hPa 2.5 m/s 18.8 mm 13.0° 1014.9 hPa 2.5 m/s 18.8 mm
 06:06     21:28    Daglengte: 15:22 Dinsdag 03 Aug
02:00 12.2° 1015.3 hPa 1.8 m/s 18.8 mm 12.2° 1015.3 hPa 1.8 m/s 18.8 mm
05:00 12.0° 1015.3 hPa 1.9 m/s 18.8 mm 12.0° 1015.3 hPa 1.9 m/s 18.8 mm
08:00 14.6° 1016.0 hPa 1.2 m/s 18.8 mm 14.6° 1016.0 hPa 1.2 m/s 18.8 mm
11:00 18.6° 1016.1 hPa 1.3 m/s 18.9 mm 18.6° 1016.1 hPa 1.3 m/s 18.9 mm
14:00 18.7° 1016.0 hPa 2.3 m/s 19.5 mm 18.7° 1016.0 hPa 2.3 m/s 19.5 mm
17:00 19.2° 1015.5 hPa 3.5 m/s 19.8 mm 19.2° 1015.5 hPa 3.5 m/s 19.8 mm
20:00 17.4° 1015.9 hPa 3.2 m/s 19.9 mm 17.4° 1015.9 hPa 3.2 m/s 19.9 mm
23:00 13.3° 1017.0 hPa 2.4 m/s 19.9 mm 13.3° 1017.0 hPa 2.4 m/s 19.9 mm
 06:08     21:26    Daglengte: 15:18 Woensdag 04 Aug
02:00 12.3° 1017.2 hPa 1.6 m/s 19.9 mm 12.3° 1017.2 hPa 1.6 m/s 19.9 mm
05:00 11.8° 1016.8 hPa 0.6 m/s 19.9 mm 11.8° 1016.8 hPa 0.6 m/s 19.9 mm
08:00 13.9° 1018.0 hPa 0.7 m/s 19.9 mm 13.9° 1018.0 hPa 0.7 m/s 19.9 mm
11:00 18.4° 1018.0 hPa 0.6 m/s 19.9 mm 18.4° 1018.0 hPa 0.6 m/s 19.9 mm
14:00 20.5° 1017.6 hPa 0.6 m/s 19.9 mm 20.5° 1017.6 hPa 0.6 m/s 19.9 mm
17:00 19.4° 1017.3 hPa 2.1 m/s 19.9 mm 19.4° 1017.3 hPa 2.1 m/s 19.9 mm
20:00 18.4° 1017.3 hPa 2.8 m/s 19.9 mm 18.4° 1017.3 hPa 2.8 m/s 19.9 mm
23:00 14.2° 1017.8 hPa 2.0 m/s 19.9 mm 14.2° 1017.8 hPa 2.0 m/s 19.9 mm
 06:09     21:24    Daglengte: 15:15 Donderdag 05 Aug
02:00 14.2° 1017.7 hPa 1.6 m/s 19.9 mm 14.2° 1017.7 hPa 1.6 m/s 19.9 mm
05:00 12.8° 1017.0 hPa 0.9 m/s 19.9 mm 12.8° 1017.0 hPa 0.9 m/s 19.9 mm
08:00 15.0° 1017.1 hPa 0.8 m/s 19.9 mm 15.0° 1017.1 hPa 0.8 m/s 19.9 mm
11:00 20.0° 1016.9 hPa 1.3 m/s 19.9 mm 20.0° 1016.9 hPa 1.3 m/s 19.9 mm
14:00 22.3° 1016.0 hPa 0.5 m/s 19.9 mm 22.3° 1016.0 hPa 0.5 m/s 19.9 mm
20:00 19.4° 1014.9 hPa 1.9 m/s 19.9 mm 19.4° 1014.9 hPa 1.9 m/s 19.9 mm
 06:11     21:22    Daglengte: 15:11 Vrijdag 06 Aug
02:00 14.5° 1014.1 hPa 0.2 m/s 19.9 mm 14.5° 1014.1 hPa 0.2 m/s 19.9 mm
08:00 15.6° 1013.3 hPa 1.9 m/s 19.9 mm 15.6° 1013.3 hPa 1.9 m/s 19.9 mm
14:00 22.7° 1012.2 hPa 0.9 m/s 19.9 mm 22.7° 1012.2 hPa 0.9 m/s 19.9 mm
20:00 20.7° 1011.4 hPa 1.8 m/s 20.0 mm 20.7° 1011.4 hPa 1.8 m/s 20.0 mm
 06:12     21:20    Daglengte: 15:08 Zaterdag 07 Aug
02:00 16.1° 1011.2 hPa 3.1 m/s 20.0 mm 16.1° 1011.2 hPa 3.1 m/s 20.0 mm
08:00 16.5° 1009.2 hPa 4.8 m/s 20.0 mm 16.5° 1009.2 hPa 4.8 m/s 20.0 mm
14:00 19.3° 1007.4 hPa 5.4 m/s 20.1 mm 19.3° 1007.4 hPa 5.4 m/s 20.1 mm
20:00 17.6° 1005.5 hPa 3.9 m/s 24.2 mm 17.6° 1005.5 hPa 3.9 m/s 24.2 mm
 06:14     21:19    Daglengte: 15:05 Zondag 08 Aug
02:00 14.4° 1006.6 hPa 4.9 m/s 24.6 mm 14.4° 1006.6 hPa 4.9 m/s 24.6 mm
08:00 15.8° 1010.8 hPa 3.8 m/s 0.8 mm
14:00 20.8° 1011.7 hPa 4.4 m/s 0.8 mm
20:00 19.1° 1012.0 hPa 3.0 m/s 0.7 mm
 06:16     21:17    Daglengte: 15:01 Maandag 09 Aug
02:00 16.0° 1013.0 hPa 2.8 m/s 0.3 mm
08:00 16.4° 1013.5 hPa 3.2 m/s 0.5 mm
14:00 21.3° 1015.4 hPa 4.4 m/s 0.8 mm
20:00 19.1° 1015.9 hPa 2.9 m/s 0.7 mm
 06:17     21:15    Daglengte: 14:58 Dinsdag 10 Aug
02:00 15.7° 1016.9 hPa 2.8 m/s 0.3 mm
08:00 16.3° 1017.0 hPa 3.1 m/s 0.3 mm
14:00 21.4° 1017.9 hPa 4.5 m/s 0.4 mm
20:00 19.2° 1017.4 hPa 3.2 m/s 0.3 mm
 06:19     21:13    Daglengte: 14:54 Woensdag 11 Aug
02:00 15.8° 1017.8 hPa 2.5 m/s 0.3 mm
08:00 16.5° 1017.0 hPa 3.1 m/s 1.3 mm
14:00 21.7° 1017.6 hPa 3.7 m/s 0.2 mm
20:00 19.7° 1016.9 hPa 2.6 m/s 0.5 mm
 06:21     21:11    Daglengte: 14:50 Donderdag 12 Aug
02:00 16.5° 1017.0 hPa 1.1 m/s 0.4 mm
08:00 16.6° 1016.6 hPa 1.6 m/s 0.6 mm
14:00 21.7° 1016.6 hPa 2.6 m/s 1.2 mm
20:00 19.2° 1016.4 hPa 1.6 m/s 1.1 mm
 06:22     21:09    Daglengte: 14:47 Vrijdag 13 Aug
02:00 16.2° 1016.5 hPa 1.8 m/s 0.7 mm
08:00 16.3° 1016.4 hPa 1.8 m/s 0.4 mm
FMI Hirlam - 7.5 km EWN WRFDA - 12 km DWD ICON - 7 km GFS - 25 km Basiskaart






























































Updatetijd (Europe/Amsterdam) Resolutie Lengte Stap
FMI Hirlam 07:00, 13:00, 19:00, 01:00 7.5 km 49h 1h
EWN WRFDA 10:15, 16:15, 22:15, 04:15 12 km 73h 1h
DWD ICON 06:15, 12:15, 18:15, 00:15 7 km 75h 1h
GFS 08:15, 14:15, 20:15, 02:15 25 km 237h 3h
30+ mm
25-30 mm
20-25 mm
15-20 mm
10-15 mm
6-10 mm
4-6 mm
2-4 mm
1-2 mm
0.5-1 mm
0.2-0.5 mm
0.1-0.2 mm
30+ mm
25-30 mm
20-25 mm
15-20 mm
10-15 mm
6-10 mm
4-6 mm
2-4 mm
1-2 mm
0.5-1 mm
0.2-0.5 mm
0.1-0.2 mm
Sneeuwval
Natte sneeuw
Hagel
Vorst
30+ mm
25-30 mm
20-25 mm
15-20 mm
10-15 mm
6-10 mm
4-6 mm
2-4 mm
1-2 mm
0.5-1 mm
0.2-0.5 mm
0.1-0.2 mm
Sneeuwval
Natte sneeuw
Hagel
Vorst
Onweer
50 mm
40 mm
30 mm
26 mm
22 mm
18 mm
14 mm
10 mm
9 mm
8 mm
7 mm
6 mm
5 mm
4.5 mm
4 mm
3.5 mm
3 mm
2.5 mm
2 mm
1.5 mm
1 mm
0.8 mm
0.6 mm
0.4 mm
0.2 mm
0.05 mm
35°
30°
25°
20°
15°
10°
-5°
-10°
-15°
-20°
-25°
-30°
-35°
33> m/s
29 m/s
25 m/s
21 m/s
17 m/s
14 m/s
11 m/s
8 m/s
5 m/s
3 m/s
0 m/s
2600 J/kg
2400 J/kg
2200 J/kg
2000 J/kg
1800 J/kg
1600 J/kg
1400 J/kg
1200 J/kg
1000 J/kg
800 J/kg
600 J/kg
400 J/kg
200 J/kg
70 dBZ
65 dBZ
60 dBZ
55 dBZ
50 dBZ
45 dBZ
40 dBZ
35 dBZ
30 dBZ
25 dBZ
20 dBZ
15 dBZ
10 dBZ
5 dBZ
-1 K
-2 K
-3 K
-4 K
-5 K
-6 K
-7 K
-8 K
-9 K
950 m²/s²
900 m²/s²
850 m²/s²
800 m²/s²
750 m²/s²
700 m²/s²
650 m²/s²
600 m²/s²
550 m²/s²
500 m²/s²
450 m²/s²
400 m²/s²
350 m²/s²
300 m²/s²
250 m²/s²
200 m²/s²
150 m²/s²
100 m²/s²
46 m/s
44 m/s
42 m/s
40 m/s
38 m/s
36 m/s
34 m/s
32 m/s
30 m/s
28 m/s
26 m/s
24 m/s
22 m/s
20 m/s
16 m/s
12 m/s
8 m/s
4 m/s
30 m/s
28 m/s
26 m/s
24 m/s
22 m/s
20 m/s